"Time","Temp","Dewpoint","Humidity","Pressure","Direction","Speed","Gust","Precip","PrecipRate"
"00:04:59","73.2","70.1","90","29.97","188","0","0","0.00","0.00"
"00:09:57","73","69.9","90","29.97","188","0","0","0.00","0.00"
"00:14:59","73","70.1","90.7","29.97","188","0","0","0.00","0.00"
"00:19:59","73","70.2","91","29.97","188","0","0","0.00","0.00"
"00:24:57","72.8","70","91","29.97","188","0","0","0.00","0.00"
"00:29:56","72.6","69.8","91","29.97","188","0","0","0.00","0.00"
"00:34:58","72.5","69.7","91.2","29.97","188","0","0","0.00","0.00"
"00:39:56","72.4","69.9","92","29.97","188","0","0","0.00","0.00"
"00:44:57","72.4","70","92.1","29.97","190","0","0","0.00","0.00"
"00:49:59","72.4","70","92.2","29.97","190","0","0","0.00","0.00"
"00:54:57","72.3","69.8","92","29.97","190","0","0","0.00","0.00"
"00:59:59","72.3","69.8","92","29.97","190","0","0","0.00","0.00"
"01:04:56","72.1","69.7","92.2","29.97","190","0","0","0.00","0.00"
"01:09:58","72","69.7","92.3","29.97","190","0","0","0.00","0.00"
"01:14:59","71.9","69.7","92.7","29.97","190","0","0","0.00","0.00"
"01:19:57","71.9","69.8","93","29.97","190","0","0","0.00","0.00"
"01:24:56","71.9","69.8","93","29.97","190","0","0","0.00","0.00"
"01:29:58","71.8","69.7","93.1","29.97","190","0","0","0.00","0.00"
"01:34:55","71.7","69.6","93","29.97","190","0","0","0.00","0.00"
"01:39:56","71.5","69.5","93.3","29.97","190","0","0","0.00","0.00"
"01:44:56","71.4","69.6","94","29.97","190","0","0","0.00","0.00"
"01:49:58","71.5","69.7","94","29.96","190","0","0","0.00","0.00"
"01:54:56","71.5","69.7","94","29.96","190","0","0","0.00","0.00"
"01:59:58","71.4","69.6","94","29.96","190","0","0","0.00","0.00"
"02:04:56","71.3","69.5","94","29.96","190","0","0","0.00","0.00"
"02:09:58","71.2","69.4","94","29.96","190","0","0","0.00","0.00"
"02:14:59","71.1","69.3","94","29.96","190","0","0","0.00","0.00"
"02:19:57","71.1","69.3","94","29.95","190","0","0","0.00","0.00"
"02:24:55","70.9","69.1","94","29.95","190","0","0","0.00","0.00"
"02:29:58","70.8","69","94","29.96","190","0","0","0.00","0.00"
"02:34:59","70.7","68.9","94","29.96","190","0","0","0.00","0.00"
"02:39:57","70.6","68.8","94","29.96","190","0","0","0.00","0.00"
"02:44:59","70.5","68.7","94","29.96","190","0","0","0.00","0.00"
"02:49:59","70.5","69","94.9","29.95","190","0","0","0.00","0.00"
"02:54:57","70.5","69","95","29.95","190","0","0","0.00","0.00"
"02:59:59","70.4","68.9","95","29.95","190","0","0","0.00","0.00"
"03:04:56","70.4","68.9","95","29.95","190","0","0","0.00","0.00"
"03:09:57","70.4","68.9","95","29.95","190","0","0","0.00","0.00"
"03:14:56","70.5","69","95","29.95","190","0","0","0.00","0.00"
"03:19:57","70.6","69.1","95","29.94","190","0","0","0.00","0.00"
"03:24:59","70.6","69.1","95","29.94","190","0","0","0.00","0.00"
"03:29:56","70.6","69.1","95","29.94","190","0","0","0.00","0.00"
"03:34:57","70.6","69.1","95","29.94","190","0","0","0.00","0.00"
"03:39:57","70.7","69.2","95","29.94","190","0.6","2.3","0.00","0.00"
"03:44:59","70.7","69.2","95","29.94","190","0.4","2.3","0.00","0.00"
"03:49:57","70.7","69.2","95","29.94","190","0","1.2","0.00","0.00"
"03:54:59","70.6","69.1","95","29.94","190","0.2","2","0.00","0.00"
"03:59:57","70.6","69.1","95","29.94","190","0.2","2.3","0.00","0.00"
"04:04:58","70.5","69","95","29.94","190","0","1.2","0.00","0.00"
"04:09:55","70.5","69","95","29.94","190","0.1","2.3","0.00","0.00"
"04:14:57","70.4","68.9","95","29.95","190","0","1","0.00","0.00"
"04:19:59","70.4","68.9","95","29.95","190","0.2","2.3","0.00","0.00"
"04:24:58","70.3","68.8","95","29.95","213","0.7","3","0.00","0.00"
"04:29:56","70.3","69.1","95.9","29.95","264","0.5","3","0.00","0.00"
"04:34:58","70.3","69","95.7","29.95","267","0.6","3.5","0.00","0.00"
"04:39:59","70.2","68.7","95","29.95","267","0.4","2.3","0.00","0.00"
"04:44:57","70.2","68.8","95.5","29.95","267","0.5","2.3","0.00","0.00"
"04:49:58","70.1","68.7","95.2","29.95","267","0.2","2.3","0.00","0.00"
"04:54:59","70.1","68.6","95","29.95","267","0.1","1.2","0.00","0.00"
"04:59:56","70.1","68.6","95","29.96","267","0","1.2","0.00","0.00"
"05:04:58","70","68.5","95","29.96","267","0","0","0.00","0.00"
"05:09:56","69.9","68.4","95","29.96","267","0","0","0.00","0.00"
"05:14:57","69.8","68.5","95.7","29.96","267","0","0","0.00","0.00"
"05:19:58","69.8","68.6","96","29.96","267","0","0","0.00","0.00"
"05:24:57","69.7","68.5","96","29.96","267","0","0","0.00","0.00"
"05:29:59","69.7","68.5","96","29.97","267","0","0","0.00","0.00"
"05:34:56","69.6","68.2","95.4","29.97","267","0","0","0.00","0.00"
"05:39:57","69.4","67.9","95","29.97","267","0","0","0.00","0.00"
"05:44:56","69.3","68","95.7","29.98","267","0","0","0.00","0.00"
"05:49:58","69.3","68.1","96","29.98","267","0","0","0.00","0.00"
"05:54:57","69.2","68","96","29.98","267","0","0","0.00","0.00"
"05:59:56","69.1","67.9","96","29.99","267","0","0","0.00","0.00"
"06:04:58","68.9","67.7","96","29.99","267","0","0","0.00","0.00"
"06:09:56","68.8","67.6","96","29.99","267","0","0","0.00","0.00"
"06:14:56","68.8","67.6","96","30.00","267","0","0","0.00","0.00"
"06:19:58","68.7","67.5","96","30.00","267","0","0","0.00","0.00"
"06:24:56","68.7","67.5","96","30.00","267","0","0","0.00","0.00"
"06:29:59","68.7","67.5","96","30.00","267","0","0","0.00","0.00"
"06:34:57","68.7","67.5","96","30.00","267","0","0","0.00","0.00"
"06:39:59","68.7","67.5","96","30.00","267","0","0","0.00","0.00"
"06:44:57","68.7","67.6","96.4","30.00","267","0","0","0.00","0.00"
"06:49:59","68.8","67.9","97","30.00","267","0","0","0.00","0.00"
"06:54:56","68.9","68","97","30.00","267","0","0","0.00","0.00"
"06:59:59","69","68.1","97","30.00","267","0","0","0.00","0.00"
"07:04:56","69.1","68.2","97","30.00","267","0","0","0.00","0.00"
"07:09:58","69.2","68.3","97","30.00","267","0","0","0.00","0.00"
"07:14:59","69.3","68.4","97","30.00","267","0","0","0.00","0.00"
"07:19:57","69.4","68.5","97","30.00","267","0","0","0.00","0.00"
"07:24:58","69.6","68.7","97","30.00","267","0","0","0.00","0.00"
"07:29:59","69.8","68.9","97","30.01","267","0","0","0.00","0.00"
"07:34:56","69.9","69","97","30.01","267","0","0","0.00","0.00"
"07:39:57","70.2","69.3","97","30.01","267","0","0","0.00","0.00"
"07:44:56","70.4","69.5","97","30.01","267","0","0","0.00","0.00"
"07:49:59","70.7","69.8","97","30.01","267","0","0","0.00","0.00"
"07:54:58","71.1","70.2","97","30.01","267","0","0","0.00","0.00"
"07:59:58","71.5","70.6","96.9","30.01","267","0","0","0.00","0.00"
"08:04:59","72","70.7","95.6","30.00","280","0.7","4","0.00","0.00"
"08:09:57","72.6","71","94.7","30.00","275","1.2","4","0.00","0.00"
"08:14:59","73.1","71.3","94","30.00","295","0.7","3.5","0.00","0.00"
"08:19:57","73.6","71.4","93","30.00","299","1","3.5","0.00","0.00"
"08:24:59","74.1","71.6","92","30.00","320","1.4","4","0.00","0.00"
"08:29:58","74.7","71.6","90.1","30.00","347","1.5","6","0.00","0.00"
"08:34:59","75.4","71.6","88","30.00","345","2.1","6","0.00","0.00"
"08:39:56","76.1","71.7","86.5","30.00","338","1.6","5","0.00","0.00"
"08:44:57","76.6","72","85.7","30.00","337","0.6","3.5","0.00","0.00"
"08:49:58","77.1","72","84.3","30.00","307","1","2.3","0.00","0.00"
"08:54:55","77.7","72","82.6","30.00","313","0.9","3","0.00","0.00"
"08:59:57","78.3","71.9","80.9","30.00","339","1.6","4","0.00","0.00"
"09:04:57","78.9","72.3","80.4","29.99","350","2.4","6","0.00","0.00"
"09:09:58","79.4","72.1","78.5","29.99","317","2.2","5.8","0.00","0.00"
"09:14:59","79.8","72.3","77.9","29.99","272","1.4","3.5","0.00","0.00"
"09:19:59","80.3","72.3","76.9","29.99","271","1.3","4","0.00","0.00"
"09:24:57","80.7","72.1","75.4","29.99","270","1.6","3.5","0.00","0.00"
"09:29:56","80.9","72.2","74.9","29.99","273","1.6","6","0.00","0.00"
"09:34:57","81.2","71.9","73.6","29.99","309","1.8","7","0.00","0.00"
"09:36:26","81.4","72.1","73.5","29.99","335","0.9","6","0.00","0.00"
"09:49:56","82.6","72.2","71","29.99","275","0.3","2","0.00","0.00"
"09:54:59","82.9","72.6","71.4","29.99","304","1.7","6","0.00","0.00"
"09:59:56","83.1","72.6","70.7","29.99","286","1.3","5","0.00","0.00"
"10:04:57","83.3","72.2","69.2","29.99","354","2.4","5","0.00","0.00"
"10:09:59","83.6","72.9","70.2","29.99","347","1.4","5","0.00","0.00"
"10:14:59","84","73","69.5","29.99","296","1.4","4.6","0.00","0.00"
"10:19:56","84.4","71.5","65.2","29.99","343","2.2","7","0.00","0.00"
"10:24:56","84.8","70.8","63","29.99","335","2.2","6","0.00","0.00"
"10:29:57","85.1","70.7","62.3","30.00","339","1.4","6","0.00","0.00"
"10:34:59","85.4","70.9","61.9","30.00","341","1.6","4.6","0.00","0.00"
"10:39:56","86.1","71.8","62.7","30.00","338","1.2","5","0.00","0.00"
"10:44:57","86.6","72","62","30.00","342","1.1","4","0.00","0.00"
"10:49:58","87","71.4","60.1","30.00","331","0.9","2.3","0.00","0.00"
"10:54:56","87.2","71.8","60.5","30.00","333","1.3","5","0.00","0.00"
"10:59:56","87.4","69.5","55.5","30.00","322","3","9","0.00","0.00"
"11:04:58","87.5","70","56.3","30.00","344","1.8","7","0.00","0.00"
"11:09:55","87.9","69.5","54.6","30.00","330","2.2","6","0.00","0.00"
"11:14:56","88.3","68.9","52.7","30.00","329","2.2","10","0.00","0.00"
"11:19:56","88.6","68","50.8","30.00","338","4.1","10.4","0.00","0.00"
"11:24:56","88.7","67.2","49.2","30.00","327","3.4","10","0.00","0.00"
"11:29:57","88.8","67.1","49","30.01","330","4.3","10.4","0.00","0.00"
"11:34:57","88.5","66.9","49","30.01","351","4","9.2","0.00","0.00"
"11:39:57","88.5","66.9","49","30.01","340","4.3","12","0.00","0.00"
"11:44:58","88.6","66.6","48.3","30.01","340","3.8","10.4","0.00","0.00"
"11:49:59","88.8","65.9","46.9","30.00","342","4","11","0.00","0.00"
"11:54:59","89.2","66.8","47.7","30.00","330","2.6","7","0.00","0.00"
"11:59:55","89.7","67.2","47.7","30.00","350","2.1","10.4","0.00","0.00"
"12:04:56","89.9","66.8","46.7","30.00","333","3.2","10.4","0.00","0.00"
"12:09:58","90.3","68.3","48.7","30.00","332","2.5","10.4","0.00","0.00"
"12:14:57","90.7","67.3","46.4","30.00","332","3.1","7","0.00","0.00"
"12:19:58","90.6","67.1","46.3","30.00","342","2.4","6.9","0.00","0.00"
"12:24:59","90.8","67.6","46.8","30.00","311","2.6","6","0.00","0.00"
"12:29:59","90.9","68","47.2","30.00","255","2","7","0.00","0.00"
"12:34:56","91","66.7","45.1","30.00","291","3.6","10.4","0.00","0.00"
"12:39:56","90.9","67.3","46.1","30.00","356","2.4","7","0.00","0.00"
"12:44:58","90.6","66.9","45.9","30.00","346","4.3","11.5","0.00","0.00"
"12:49:59","90.1","67.2","46.9","30.00","317","2.1","7","0.00","0.00"
"12:54:56","90.3","67.9","47.9","30.00","337","3","7","0.00","0.00"
"12:59:59","90.5","67.9","47.7","30.00","341","2.1","6.9","0.00","0.00"
"13:04:56","90.8","69.1","49.2","29.99","52","1.2","4","0.00","0.00"
"13:09:58","90.8","66.8","45.5","29.99","343","2.6","9.2","0.00","0.00"
"13:14:56","89.9","66.2","45.8","29.99","337","1.7","10.4","0.00","0.00"
"13:19:58","89.5","67.5","48.6","29.99","345","4.4","11.5","0.00","0.00"
"13:24:58","89.6","67.1","47.8","29.99","330","2.9","7","0.00","0.00"
"13:29:57","89.6","67","47.6","29.99","329","2.4","9","0.00","0.00"
"13:34:58","90","67.8","48.1","29.99","314","3.9","11.5","0.00","0.00"
"13:39:57","90.7","69.2","49.5","29.99","336","2.3","9","0.00","0.00"
"13:44:59","91","67.2","45.7","29.99","342","2.8","6.9","0.00","0.00"
"13:49:56","90.8","67.1","46","29.99","351","2.5","5","0.00","0.00"
"13:54:57","90.7","67.7","47","29.99","250","2.3","9.2","0.00","0.00"
"13:59:56","90.6","67.6","47","29.99","311","3.1","10.4","0.00","0.00"
"14:04:56","90.6","67.8","47.3","29.99","357","1.1","4","0.00","0.00"
"14:09:58","90.5","67.5","47.1","29.99","346","3.1","11.5","0.00","0.00"
"14:14:58","90.7","67.8","47.3","29.99","355","3","11.5","0.00","0.00"
"14:19:58","91","67.3","46","29.98","340","3.3","7","0.00","0.00"
"14:24:55","91.2","67.4","45.8","29.98","302","2.2","5","0.00","0.00"
"14:29:56","91.6","67.4","45.2","29.98","269","2.6","5","0.00","0.00"
"14:34:57","91.6","67.3","45.1","29.98","226","2.8","7","0.00","0.00"
"14:39:57","91.6","67.4","45.1","29.98","290","1.6","7","0.00","0.00"
"14:44:58","91.8","68.2","46.3","29.98","306","1.6","10","0.00","0.00"
"14:49:59","91.8","66.7","43.9","29.97","317","3.1","6.9","0.00","0.00"
"14:54:56","91.7","66.4","43.5","29.97","340","2.3","7","0.00","0.00"
"14:59:58","91.8","66","42.9","29.97","346","2.3","7","0.00","0.00"
"15:04:58","91.9","67.1","44.4","29.97","327","3.7","11.5","0.00","0.00"
"15:09:56","92.1","67.9","45.2","29.97","329","1.5","5","0.00","0.00"
"15:14:57","92.4","67.3","44","29.97","328","0.7","2.3","0.00","0.00"
"15:19:58","92.2","66.1","42.5","29.96","289","2.2","7","0.00","0.00"
"15:24:56","92.3","65.3","41","29.96","320","2.8","9.2","0.00","0.00"
"15:29:57","92.5","65.5","41.1","29.97","265","2.6","5","0.00","0.00"
"15:34:58","92.5","64.6","39.9","29.97","222","2.9","6","0.00","0.00"
"15:39:59","92.7","66.3","42.2","29.97","234","2.8","5.8","0.00","0.00"
"15:44:56","92.8","65.7","41.2","29.97","292","1.8","9","0.00","0.00"
"15:49:56","92.6","65.6","41.3","29.96","304","2.4","5","0.00","0.00"
"15:54:59","92.4","65.1","40.7","29.96","321","1.5","7","0.00","0.00"
"15:59:56","92.2","65.2","41.1","29.96","345","1.1","4","0.00","0.00"
"16:04:57","92.4","64.7","40.1","29.96","274","2.5","6","0.00","0.00"
"16:09:55","92.8","63.9","38.5","29.96","301","2.6","6","0.00","0.00"
"16:14:56","93","63.8","38.3","29.96","337","3","6","0.00","0.00"
"16:19:57","92.9","63","37.3","29.96","343","1.8","4.6","0.00","0.00"
"16:24:59","93","64.1","38.6","29.96","246","2.3","6","0.00","0.00"
"16:29:56","93.4","62.9","36.6","29.96","329","3","10","0.00","0.00"
"16:34:57","93.4","62.3","35.9","29.96","316","2.4","7","0.00","0.00"
"16:39:59","93.3","62.7","36.4","29.96","227","2.2","7","0.00","0.00"
"16:44:59","93.6","62.9","36.3","29.96","215","2.1","9.2","0.00","0.00"
"16:49:56","93.7","62.4","35.6","29.95","245","2","5","0.00","0.00"
"16:54:58","93.5","62","35.4","29.95","350","0.4","3.5","0.00","0.00"
"16:59:56","93.4","62.6","36.2","29.95","16","1.3","4","0.00","0.00"
"17:04:59","93.6","62.1","35.4","29.95","334","1.7","7","0.00","0.00"
"17:09:56","93.8","62.6","35.7","29.95","317","2","5","0.00","0.00"
"17:14:57","93.8","61.6","34.5","29.95","322","2.4","7","0.00","0.00"
"17:19:58","93.7","62.7","36","29.95","333","1.2","6","0.00","0.00"
"17:24:59","93.7","62.3","35.6","29.95","336","2.7","6","0.00","0.00"
"17:29:56","93.7","62.7","36.1","29.95","343","1.3","3.5","0.00","0.00"
"17:34:57","93.5","62.7","36.2","29.95","95","0.8","4","0.00","0.00"
"17:39:58","93.3","61.7","35.2","29.95","2","2.4","6","0.00","0.00"
"17:44:56","93.1","61.3","34.8","29.95","340","2.6","6","0.00","0.00"
"17:49:58","93","61.9","35.8","29.95","329","2.3","5","0.00","0.00"
"17:54:56","92.9","61.9","35.9","29.95","337","0.8","4","0.00","0.00"
"17:59:58","92.7","61.6","35.7","29.95","316","1.6","5","0.00","0.00"
"18:04:56","92.5","60.4","34.4","29.94","332","2.3","5","0.00","0.00"
"18:09:59","92.3","60.5","34.8","29.94","332","0.9","3.5","0.00","0.00"
"18:14:58","92","61.1","35.9","29.94","340","0.8","3.5","0.00","0.00"
"18:19:58","91.9","61.3","36.3","29.94","337","1.8","5","0.00","0.00"
"18:24:57","91.9","61.1","36","29.94","328","1.1","5","0.00","0.00"
"18:29:57","91.9","61.2","36.1","29.94","330","1","3.5","0.00","0.00"
"18:34:56","91.8","60.1","34.8","29.94","333","1.6","4","0.00","0.00"
"18:39:58","91.6","60.7","35.8","29.94","340","1.2","3.5","0.00","0.00"
"18:44:57","91.2","60","35.3","29.94","340","0.8","3","0.00","0.00"
"18:49:59","90.9","60.1","35.8","29.93","341","0.7","3.5","0.00","0.00"
"18:54:58","90.7","60","35.9","29.93","345","0.2","2.3","0.00","0.00"
"18:59:59","90.3","59.6","35.8","29.93","14","0.5","3.5","0.00","0.00"
"19:04:57","90","59.8","36.4","29.93","140","0.4","2.3","0.00","0.00"
"19:09:59","89.7","59.7","36.7","29.93","139","0.6","2.3","0.00","0.00"
"19:14:56","89.3","59.7","37","29.93","140","0.5","2.3","0.00","0.00"
"19:19:57","89.1","58.7","36.1","29.93","140","0.5","2.3","0.00","0.00"
"19:24:57","88.8","59.1","37","29.93","140","0.1","1.2","0.00","0.00"
"19:29:59","88.4","59.4","37.7","29.93","140","0.2","1.2","0.00","0.00"
"19:34:58","87.8","63","43.7","29.93","140","0","1.2","0.00","0.00"
"19:39:59","87","63","44.8","29.93","148","0","0","0.00","0.00"
"19:44:57","86.1","62.8","45.8","29.93","275","0","1.2","0.00","0.00"
"19:49:59","85.4","63.5","48.1","29.93","275","0","0","0.00","0.00"
"19:54:57","84.7","63.4","49","29.93","275","0","0","0.00","0.00"
"19:59:55","84","62.7","49","29.93","275","0.1","1.2","0.00","0.00"
"20:04:58","83.3","62.3","49.2","29.93","275","0.6","1.2","0.00","0.00"
"20:09:56","83","61.9","49","29.93","251","1","2.3","0.00","0.00"
"20:14:58","82.9","62.8","50.9","29.94","245","0.2","1.2","0.00","0.00"
"20:19:56","82.4","63.7","53.5","29.94","245","0.6","2.3","0.00","0.00"
"20:24:58","81.6","63.7","54.6","29.94","245","0","0","0.00","0.00"
"20:29:58","80.9","62.9","54.4","29.95","245","0","1.2","0.00","0.00"
"20:34:58","80.4","63.3","55.9","29.95","245","0","1.2","0.00","0.00"
"20:39:57","80.1","63.8","57.5","29.95","245","0","1.2","0.00","0.00"
"20:44:56","79.6","63.8","58.5","29.95","245","0","0","0.00","0.00"
"20:49:58","78.9","63.7","59.6","29.95","245","0","1.2","0.00","0.00"
"20:54:59","78.4","63.7","60.7","29.95","245","0.2","1.2","0.00","0.00"
"20:59:56","78.1","64.1","62.1","29.95","245","0","0","0.00","0.00"
"21:04:59","77.6","63.8","62.4","29.95","245","0","0","0.00","0.00"
"21:09:57","77.2","63.4","62.7","29.95","245","0","0","0.00","0.00"
"21:14:57","76.7","64","64.9","29.96","245","0","0","0.00","0.00"
"21:19:58","76.4","64.1","65.8","29.96","245","0","0","0.00","0.00"
"21:24:57","76.1","63.5","65.1","29.96","245","0","0","0.00","0.00"
"21:29:58","75.7","63.5","66.1","29.97","245","0","0","0.00","0.00"
"21:34:57","75.2","63.6","67.2","29.97","245","0","0","0.00","0.00"
"21:39:57","74.9","63.4","67.7","29.97","245","0","0","0.00","0.00"
"21:44:58","74.5","63.4","68.4","29.97","245","0","0","0.00","0.00"
"21:49:58","74.1","63.5","69.5","29.97","245","0","0","0.00","0.00"
"21:54:58","73.8","63.5","70.3","29.97","245","0","0","0.00","0.00"
"21:59:59","73.6","64.1","72.2","29.97","245","0","0","0.00","0.00"
"22:04:56","73.7","64.5","73","29.97","245","0","0","0.00","0.00"
"22:09:58","73.6","64.4","73","29.97","245","0","0","0.00","0.00"
"22:14:59","73.2","64","73.1","29.98","245","0","0","0.00","0.00"
"22:19:59","72.9","64.1","74","29.98","245","0","0","0.00","0.00"
"22:24:59","72.7","63.9","74.2","29.98","245","0","0","0.00","0.00"
"22:29:56","72.5","64.1","75","29.98","245","0","0","0.00","0.00"
"22:34:56","72.3","63.9","75","29.98","245","0","0","0.00","0.00"
"22:39:56","72.2","64.2","75.9","29.98","245","0","0","0.00","0.00"
"22:44:57","72.1","64.2","76.3","29.98","245","0","0","0.00","0.00"
"22:49:57","72","64.4","77","29.98","245","0","0","0.00","0.00"
"22:54:56","71.9","64.7","78","29.98","245","0","0","0.00","0.00"
"22:59:56","71.8","64.3","77.2","29.98","245","0","0","0.00","0.00"
"23:04:58","71.7","63.8","76.4","29.98","245","0","0","0.00","0.00"
"23:09:56","71.7","64","76.9","29.98","245","0","0","0.00","0.00"
"23:14:58","71.5","64.2","77.7","29.98","245","0","0","0.00","0.00"
"23:19:57","71.3","64.1","78","29.98","245","0","0","0.00","0.00"
"23:24:56","71.1","63.9","78","29.98","245","0","0","0.00","0.00"
"23:29:59","70.9","63.7","78","29.98","245","0","0","0.00","0.00"
"23:34:58","70.8","64","79","29.98","245","0","0","0.00","0.00"
"23:39:56","70.6","63.8","79","29.98","245","0","0","0.00","0.00"
"23:44:58","70.6","63.8","79","29.98","245","0","0","0.00","0.00"
"23:49:57","70.5","63.7","79","29.98","245","0","0","0.00","0.00"
"23:54:59","70.4","63.7","79.4","29.98","245","0","0","0.00","0.00"
"23:59:58","70.2","63.7","80","29.98","245","0","0","0.00","0.00"
